Barcelona, Spain

3:57 PM CEST on May 20, 2018 (GMT +0200)
El Prat

Weather History for LEBL - February, 2018

Change the Weather History Date:

Monday, February 12, 2018

  Actual Average Record
Temperature  
Mean Temperature 44 °F -  
Max Temperature 52 °F 57 °F 68 °F (2007)
Min Temperature 37 °F 43 °F 33 °F (1999)
Degree Days  
Heating Degree Days 20    
Moisture  
Dew Point 43 °F    
Average Humidity 82    
Maximum Humidity 100    
Minimum Humidity 57    
Precipitation  
Precipitation 0.16 in 0.05 in - ()
Sea Level Pressure  
Sea Level Pressure 30.02 in    
Wind  
Wind Speed 6 mph ()    
Max Wind Speed 14 mph    
Max Gust Speed -    
Visibility 7.6 miles    
Events Rain    
Averages and records for this station are not official NWS values.
T = Trace of Precipitation, MM = Missing Value Source: Averaged Metar Reports

Daily Weather History Graph

Daily Weather History Graph

Search for Another Location

Airport or City:

Astronomy

Feb. 12, 2018 Rise Set
Actual Time 7:50 AM CET 6:21 PM CET
Civil Twilight 7:22 AM CET 6:50 PM CET
Nautical Twilight 6:49 AM CET 7:22 PM CET
Astronomical Twilight 6:17 AM CET 7:54 PM CET
Moon 5:32 AM CET (2/12) 3:22 PM CET (2/12)
Length of Visible Light 11h 28m
Length of Day
10h 31m
Waning Crescent, 11% of the Moon is Illuminated
Feb 12
Waning Crescent
Feb 15
New
Feb 23
First Quarter
Mar 2
Full
Mar 9
Last Quarter

Hourly Weather History & Observations

Time (CET) Temp. Windchill Dew Point Humidity Pressure Visibility Wind Dir Wind Speed Gust Speed Precip Events Conditions
12:00 AM 54 °F - 47 °F 70% 29.95 in 19 mi NNE 3.5 mph - -  
12:00 AM 53.6 °F - 46.4 °F 77% 29.95 in - NE 3.5 mph - N/A   Clear
12:30 AM 51.8 °F - 46.4 °F 82% 29.95 in - NE 3.5 mph - N/A   Clear
1:00 AM 53 °F - 46 °F 68% 29.97 in 19 mi NNE 4.6 mph - -   Overcast
1:00 AM 53.6 °F - 44.6 °F 72% 29.95 in 6.2 mi North 3.5 mph - N/A   Partly Cloudy
1:30 AM 53.6 °F - 41.0 °F 62% 29.95 in 6.2 mi NNE 4.6 mph - N/A   Partly Cloudy
2:00 AM 53 °F - 43 °F 59% 29.96 in 19 mi North 5.8 mph - -  
2:00 AM 51.8 °F - 42.8 °F 71% 29.95 in 6.2 mi North 5.8 mph - N/A   Partly Cloudy
2:30 AM 51.8 °F - 41.0 °F 67% 29.98 in 6.2 mi North 4.6 mph - N/A   Partly Cloudy
3:00 AM 53 °F - 42 °F 57% 29.98 in 19 mi NE 6.9 mph - -  
3:00 AM 51.8 °F - 41.0 °F 67% 29.98 in 6.2 mi NE 4.6 mph - N/A   Partly Cloudy
3:30 AM 51.8 °F - 42.8 °F 71% 29.98 in 6.2 mi Variable 2.3 mph - N/A   Scattered Clouds
4:00 AM 52 °F - 46 °F 75% 29.97 in 11 mi East 4.6 mph - -   Overcast
4:30 AM 51.8 °F - 46.4 °F 82% 29.95 in 6.2 mi ESE 4.6 mph - N/A   Scattered Clouds
5:00 AM 54 °F - 47 °F 71% 29.97 in 9 mi SE 4.6 mph - -  
5:00 AM 53.6 °F - 46.4 °F 77% 29.95 in 6.2 mi East 3.5 mph - N/A   Scattered Clouds
5:30 AM 53.6 °F - 48.2 °F 82% 29.95 in 6.2 mi ENE 4.6 mph - N/A   Mostly Cloudy
6:00 AM 53 °F - 46 °F 69% 29.98 in 19 mi SE 5.8 mph - -   Clear
6:00 AM 53.6 °F - 44.6 °F 72% 29.95 in 6.2 mi ESE 6.9 mph - N/A   Mostly Cloudy
6:30 AM 51.8 °F - 46.4 °F 82% 29.95 in 6.2 mi East 3.5 mph - N/A   Mostly Cloudy
7:00 AM 52 °F - 46 °F 74% 29.97 in 19 mi ENE 5.8 mph - - Rain Light Drizzle
7:00 AM 51.8 °F - 46.4 °F 82% 29.95 in 6.2 mi North 3.5 mph - N/A   Light Drizzle
7:30 AM 51.8 °F - 44.6 °F 76% 29.98 in 6.2 mi ESE 1.2 mph - N/A Rain Light Rain
8:00 AM 51.8 °F - 48.2 °F 88% 29.98 in 4.3 mi SSW 6.9 mph - N/A Rain Rain
8:16 AM 50.0 °F - 48.2 °F 94% 29.98 in 6.2 mi ESE 9.2 mph - N/A   Mostly Cloudy
8:30 AM 50.0 °F - 48.2 °F 94% 29.98 in 6.2 mi ESE 8.1 mph - N/A   Mostly Cloudy
9:00 AM 50.0 °F - 46.4 °F 87% 30.01 in 6.2 mi ESE 6.9 mph - N/A   Mostly Cloudy
9:30 AM 51.8 °F - 48.2 °F 88% 30.01 in 6.2 mi ESE 11.5 mph - N/A   Mostly Cloudy
10:00 AM 53 °F - 48 °F 78% 30.01 in 25 mi South 4.6 mph - -   Partly Cloudy
10:00 AM 51.8 °F - 48.2 °F 88% 30.01 in 6.2 mi ESE 10.4 mph - N/A   Mostly Cloudy
10:30 AM 50.0 °F - 46.4 °F 87% 30.01 in 6.2 mi SE 8.1 mph - N/A   Mostly Cloudy
11:00 AM 50 °F - 46 °F 81% 30.04 in 13 mi SE 10.4 mph - - Rain Light Rain
11:00 AM 50.0 °F - 44.6 °F 82% 30.04 in 6.2 mi SE 8.1 mph - N/A Rain Light Rain
11:30 AM 50.0 °F - 44.6 °F 82% 30.04 in 6.2 mi SE 9.2 mph - N/A   Mostly Cloudy
12:00 PM 49 °F - 46 °F 83% 30.05 in 9 mi SE 12.7 mph - - Rain Light Rain
12:00 PM 48.2 °F - 44.6 °F 87% 30.04 in 6.2 mi ESE 12.7 mph - N/A Rain Light Rain
12:30 PM 46.4 °F 40.7 °F 44.6 °F 93% 30.04 in 6.2 mi East 12.7 mph - N/A   Mostly Cloudy
1:00 PM 46 °F - 43 °F 87% 30.05 in 4 mi ESE 13.8 mph - - Rain Light Drizzle
1:00 PM 46.4 °F 41.5 °F 42.8 °F 87% 30.04 in 3.7 mi East 10.4 mph - N/A   Light Drizzle
1:30 PM 46.4 °F 41.1 °F 42.8 °F 87% 30.04 in 3.7 mi East 11.5 mph - N/A   Light Drizzle
2:00 PM 46.4 °F 41.5 °F 42.8 °F 87% 30.04 in 5.6 mi ENE 10.4 mph - N/A Rain Light Rain
2:30 PM 46.4 °F 41.9 °F 42.8 °F 87% 30.04 in 5.0 mi ENE 9.2 mph - N/A Rain Light Rain
3:00 PM 46 °F - 42 °F 81% 30.04 in 5 mi East 10.4 mph - - Rain Light Rain
3:00 PM 44.6 °F 38.8 °F 41.0 °F 87% 30.04 in 4.3 mi ENE 11.5 mph - N/A Rain Light Rain
3:30 PM 44.6 °F 39.7 °F 41.0 °F 87% 30.04 in 5.6 mi ENE 9.2 mph - N/A Rain Light Rain
4:00 PM 46 °F - 42 °F 81% 30.03 in 9 mi East 8.1 mph - - Rain Light Rain
4:00 PM 44.6 °F 40.7 °F 41.0 °F 87% 30.01 in 6.2 mi ENE 6.9 mph - N/A Rain Light Rain
4:30 PM 44.6 °F 39.7 °F 41.0 °F 87% 30.01 in 6.2 mi ENE 9.2 mph - N/A Rain Light Rain
5:00 PM 45 °F - 42 °F 83% 30.03 in 7 mi East 9.2 mph - - Rain Light Rain
5:00 PM 44.6 °F 40.2 °F 41.0 °F 87% 30.01 in 6.2 mi ENE 8.1 mph - N/A Rain Light Rain
5:30 PM 44.6 °F 40.2 °F 41.0 °F 87% 30.01 in 5.6 mi ENE 8.1 mph - N/A Rain Light Rain
6:00 PM 45 °F - 41 °F 81% 30.04 in 9 mi East 6.9 mph - - Rain Light Rain
6:00 PM 44.6 °F 40.7 °F 41.0 °F 87% 30.04 in 5.6 mi East 6.9 mph - N/A Rain Light Rain
6:30 PM 44.6 °F 43.1 °F 41.0 °F 87% 30.04 in 6.2 mi East 3.5 mph - N/A   Mostly Cloudy
7:00 PM 46 °F - 41 °F 76% 30.06 in 6 mi ESE 6.9 mph - - Rain Light Rain
7:00 PM 44.6 °F 43.1 °F 41.0 °F 87% 30.04 in 5.6 mi ESE 3.5 mph - N/A Rain Light Rain
7:30 PM 44.6 °F - 39.2 °F 81% 30.06 in 5.6 mi Variable 1.2 mph - N/A Rain Light Rain
8:00 PM 44.6 °F 40.7 °F 37.4 °F 76% 30.06 in 6.2 mi East 6.9 mph - N/A Rain Light Rain
8:29 PM 39.2 °F 32.0 °F 35.6 °F 87% 30.09 in 5.0 mi NNE 11.5 mph - N/A Rain Heavy Rain
8:30 PM 41.0 °F 33.5 °F 37.4 °F 87% 30.09 in 6.2 mi ENE 13.8 mph - N/A Rain Rain
8:38 PM 37.4 °F 30.3 °F 35.6 °F 93% 30.09 in 4.3 mi North 10.4 mph - N/A Rain Rain
9:00 PM 38 °F - 36 °F 90% 30.12 in 4 mi North 11.5 mph - - Rain Rain
9:00 PM 37.4 °F 30.3 °F 35.6 °F 93% 30.09 in 4.3 mi North 10.4 mph - N/A Rain Rain
9:30 PM 37.4 °F 32.1 °F 35.6 °F 93% 30.09 in 4.3 mi North 6.9 mph - N/A Rain Rain
10:00 PM 39 °F - 37 °F 90% 30.09 in 11 mi SE 12.7 mph - - Rain Light Rain
10:00 PM 37.4 °F 29.8 °F 37.4 °F 100% 30.06 in 6.2 mi ESE 11.5 mph - N/A Rain Light Rain
10:30 PM 39.2 °F 32.5 °F 37.4 °F 93% 30.09 in 6.2 mi East 10.4 mph - N/A Rain Light Rain
11:00 PM 40 °F - 37 °F 85% 30.13 in 19 mi East 10.4 mph - -   Clear
11:00 PM 39.2 °F 33.6 °F 37.4 °F 93% 30.12 in 6.2 mi ENE 8.1 mph - N/A   Scattered Clouds
11:30 PM 41.0 °F 35.8 °F 37.4 °F 87% 30.09 in 6.2 mi ENE 8.1 mph - N/A   Scattered Clouds